Regional Weather Roundup
Issued by NWS

Home | Current Version | Previous Version | Graphics & Text | Print | Product List | Glossary On
Versions: 1 2 3 4 5 6 7 8 9 10 11 12 13 14 15 16 17 18 19 20 21 22 23 24 25 26 27 28 29 30 31 32 33 34 35 36 37 38 39 40 41 42 43 44 45 46 47 48 49 50
000
ASUS45 KCYS 060610
RWRWY

WYOMING REGIONAL WEATHER ROUNDUP
NATIONAL WEATHER SERVICE CHEYENNE WY
1200 AM MDT WED MAY 06 2015

NOTE:  "FAIR" INDICATES FEW OR NO CLOUDS BELOW 12,000 FEET
WITH NO SIGNIFICANT WEATHER AND/OR OBSTRUCTIONS TO VISIBILITY.

WYZ001-060700-
YELLOWSTONE NATIONAL PARK

CITY           SKY/WX    TMP DP  RH WIND       PRES   REMARKS
LK YELLOWSTONE   N/A     36  32  85 CALM      29.92F
6HR MIN TEMP:  36; 6HR MAX TEMP:  53;

W YELLOWSTONE  NOT AVBL

$$
WYZ002>013-054>058-071-098>099-060700-
NORTHERN WYOMING

CITY           SKY/WX    TMP DP  RH WIND       PRES   REMARKS
JACKSON        MOCLDY    45  43  93 CALM      29.86S
CODY           CLOUDY    52  48  87 S5        29.78S
GREYBULL       MOCLDY    61  43  51 NW26G32   29.69F
6HR MIN TEMP:  61; 6HR MAX TEMP:  78; 6HR PCP: TRACE;

WORLAND        FAIR      60  43  53 N12       29.71R
6HR MIN TEMP:  58; 6HR MAX TEMP:  77;

SHERIDAN       FAIR      57  44  62 N13G23    29.70R
6HR MIN TEMP:  57; 6HR MAX TEMP:  70;

BUFFALO        FAIR      52  46  80 S13       29.75F
6HR MIN TEMP:  52; 6HR MAX TEMP:  69;

GILLETTE       FAIR      54  47  77 S15G25    29.75F
6HR MIN TEMP:  54; 6HR MAX TEMP:  66;

HULETT         FAIR      55  46  71 S10       29.78F
NEWCASTLE      MOCLDY    54  46  76 SE13      29.82S

$$
WYZ014>020-022>026-101>103-060700-
CENTRAL WYOMING

CITY           SKY/WX    TMP DP  RH WIND       PRES   REMARKS
BIG PINEY      CLOUDY    47  43  86 CALM      29.88S
6HR MIN TEMP:  47; 6HR MAX TEMP:  53; 6HR PCP: TRACE;

PINEDALE       CLOUDY    45  41  87 W7        29.88S
DUBOIS         CLOUDY    43  37  81 NW7       29.86F
LANDER         LGT RAIN  53  44  71 SW16      29.74F
6HR MIN TEMP:  53; 6HR MAX TEMP:  65; 6HR PCP: TRACE;

RIVERTON       LGT RAIN  56  41  57 W17       29.75S
6HR MIN TEMP:  55; 6HR MAX TEMP:  71; 6HR PCP:  0.01;

CASPER         FAIR      44  41  89 N6        29.75S
6HR MIN TEMP:  44; 6HR MAX TEMP:  64;

DOUGLAS        FAIR      50  47  89 SE13      29.78F
6HR MIN TEMP:  50; 6HR MAX TEMP:  60;


$$
WYZ021-027>030-104>119-060700-
SOUTHERN WYOMING

CITY           SKY/WX    TMP DP  RH WIND       PRES   REMARKS
EVANSTON       CLOUDY    44  42  93 SW9       29.90S
6HR MIN TEMP:  44; 6HR MAX TEMP:  49; 6HR PCP:  0.01;

KEMMERER       CLOUDY    45  41  87 CALM      29.90R
FORT BRIDGER   CLOUDY    46  46 100 W10       29.91S
ROCK SPRINGS   CLOUDY    48  41  76 W10       29.84S
6HR MIN TEMP:  48; 6HR MAX TEMP:  55;

DIXON          CLOUDY    51  46  82 W5        29.84S
RAWLINS        FAIR      43  38  82 N6        29.80S
6HR MIN TEMP:  43; 6HR MAX TEMP:  66;

SARATOGA       MOCLDY    48  41  76 SW6       29.82S
LARAMIE        FAIR      42  39  89 S9        29.81F
6HR MIN TEMP:  42; 6HR MAX TEMP:  47;

CHEYENNE       CLOUDY    48  46  93 NE5       29.79F
6HR MIN TEMP:  47; 6HR MAX TEMP:  49; 6HR PCP:  0.08;

TORRINGTON     LGT RAIN  52  50  93 SE13      29.77F
6HR MIN TEMP:  52; 6HR MAX TEMP:  57; 6HR PCP:  0.01;

PINE BLUFFS    DRIZZLE   50  48  93 E9        29.77F

$$


USA.gov is the U.S. government's official web portal to all federal, state and local government web resources and services.